Location: ????????
(55.3939°N, 37.4780°E)
Time: 08:53:50
(UTC+00:00)

Cosmos 1513 Rocket - Pass Details

Date: 14 April 2026
Orbit: 938 x 1008 km, 82.9° (Epoch: 10 May)

Event Time Altitude Azimuth Distance (km) Brightness Sun altitude
Exits shadow 22:40:27 47° 188° (S) 1,303 4.7 -23.3°
Maximum altitude 22:42:28 89° 106° (ESE) 1,011 4.5 -23.2°
Drops below altitude 10° 22:48:52 10° 12° (NNE) 2,771 8.0 -22.9°
Sets 22:51:23 0° 12° (NNE) 3,715 9.0 -22.8°
